Weather History for KPKD - March, 2013

Change the Weather History Date:

Saturday, March 30, 2013

  Actual Average Record
Temperature  
Mean Temperature 38 °F -  
Max Temperature 45 °F 43 °F 73 °F (1967)
Min Temperature 30 °F 22 °F -19 °F (1975)
Degree Days  
Heating Degree Days 28    
Moisture  
Dew Point 33 °F    
Average Humidity 88    
Maximum Humidity 100    
Minimum Humidity 56    
Precipitation  
Precipitation 0.21 in - - ()
Sea Level Pressure  
Sea Level Pressure 29.90 in    
Wind  
Wind Speed 3 mph (NW)    
Max Wind Speed 14 mph    
Max Gust Speed -    
Visibility 4 miles    
Events Fog , Rain    
Averages and records for this station are not official NWS values.
T = Trace of Precipitation, MM = Missing Value Source: NWS Daily Summary

Daily Weather History Graph

Daily Weather History Graph

Search for Another Location

Airport or City:

Trip Planner

Search our weather history database for the weather conditions in past years. The results will help you decide how hot, cold, wet, or windy it might be!

Date:

Astronomy

Mar. 30, 2013 Rise Set
Actual Time 7:02 AM CDT 7:47 PM CDT
Civil Twilight 6:32 AM CDT 8:17 PM CDT
Nautical Twilight 5:55 AM CDT 8:54 PM CDT
Astronomical Twilight 5:17 AM CDT 9:32 PM CDT
Moon No Moon Rise 8:44 AM CDT (3/30)
Length of Visible Light 13h 45m
Length of Day
12h 44m
Waning Gibbous, 86% of the Moon is Illuminated
Mar 30
Waning Gibbous
Apr 2
Last Quarter
Apr 10
New
Apr 18
First Quarter
Apr 25
Full

Hourly Weather History & Observations

Time (CDT) Temp. Windchill Dew Point Humidity Pressure Visibility Wind Dir Wind Speed Gust Speed Precip Events Conditions
12:53 AM 37.0 °F - 35.1 °F 93% 29.99 in 5.0 mi Calm Calm - 0.00 in   Overcast
1:48 AM 35.6 °F 31.7 °F 33.8 °F 93% 29.92 in 2.5 mi NNE 4.6 mph - 0.02 in Rain Light Rain
1:53 AM 36.0 °F 32.1 °F 34.0 °F 93% 29.96 in 2.5 mi North 4.6 mph - 0.03 in Rain Light Rain
2:07 AM 37.4 °F - 35.6 °F 93% 29.93 in 3.0 mi Calm Calm - 0.00 in Rain Light Rain
2:20 AM 37.4 °F - 35.6 °F 93% 29.92 in 2.5 mi Calm Calm - 0.00 in Rain Light Rain
2:34 AM 37.4 °F - 35.6 °F 93% 29.92 in 1.5 mi Calm Calm - 0.03 in Rain Rain
2:53 AM 36.0 °F 32.1 °F 35.1 °F 97% 29.94 in 0.8 mi NE 4.6 mph - 0.09 in Rain Rain
3:09 AM 37.4 °F 33.8 °F 35.6 °F 93% 29.90 in 1.5 mi ENE 4.6 mph - 0.04 in Rain Light Rain
3:38 AM 37.4 °F 34.9 °F 35.6 °F 93% 29.89 in 1.0 mi ENE 3.5 mph - 0.08 in Rain Light Rain
3:53 AM 37.0 °F - 36.0 °F 96% 29.91 in 1.5 mi Calm Calm - 0.09 in   Overcast
4:15 AM 35.6 °F 31.7 °F 35.6 °F 100% 29.87 in 0.2 mi NNE 4.6 mph - 0.00 in Fog Fog
4:26 AM 35.6 °F - 35.6 °F 100% 29.88 in 0.8 mi Calm Calm - 0.00 in   Overcast
4:34 AM 37.4 °F - 35.6 °F 93% 29.87 in 1.0 mi Calm Calm - 0.00 in   Overcast
4:53 AM 37.0 °F - 35.1 °F 93% 29.91 in 0.8 mi Calm Calm - 0.00 in   Overcast
5:08 AM 35.6 °F - 35.6 °F 100% 29.87 in 0.2 mi Calm Calm - N/A Fog Fog
5:53 AM 33.1 °F - 33.1 °F 100% 29.90 in 0.2 mi Calm Calm - N/A Fog Fog
6:53 AM 34.0 °F 31.0 °F 33.1 °F 96% 29.90 in 0.2 mi NW 3.5 mph - N/A Fog Fog
7:41 AM 33.8 °F 29.6 °F 33.8 °F 100% 29.87 in 0.2 mi NW 4.6 mph - N/A Fog Fog
7:53 AM 34.0 °F 28.8 °F 34.0 °F 100% 29.92 in 0.2 mi NW 5.8 mph - N/A Fog Fog
8:53 AM 33.1 °F - 33.1 °F 100% 29.92 in 0.2 mi Calm Calm - N/A Fog Fog
9:21 AM 33.8 °F - 33.8 °F 100% 29.87 in 0.2 mi Calm Calm - N/A Fog Fog
9:53 AM 35.1 °F - 35.1 °F 100% 29.92 in 0.2 mi Calm Calm - N/A Fog Fog
10:14 AM 37.4 °F - 37.4 °F 100% 29.87 in 1.2 mi Calm Calm - N/A   Partly Cloudy
10:17 AM 37.4 °F - 37.4 °F 100% 29.87 in 3.0 mi Calm Calm - N/A   Partly Cloudy
10:53 AM 37.0 °F 32.4 °F 34.0 °F 89% 29.92 in 7.0 mi NW 5.8 mph - N/A   Clear
11:53 AM 43.0 °F 38.2 °F 30.9 °F 62% 29.91 in 10.0 mi NW 8.1 mph - N/A   Clear
12:53 PM 39.9 °F 33.4 °F 33.1 °F 77% 29.91 in 8.0 mi West 10.4 mph - N/A   Clear
1:53 PM 39.9 °F 32.5 °F 30.9 °F 70% 29.91 in 10.0 mi West 12.7 mph - N/A   Clear
2:53 PM 45.0 °F 38.5 °F 30.0 °F 56% 29.90 in 10.0 mi WNW 13.8 mph - N/A   Clear
3:53 PM 44.1 °F 38.6 °F 32.0 °F 63% 29.90 in 10.0 mi WNW 10.4 mph - N/A   Clear
4:53 PM 41.0 °F 34.3 °F 32.0 °F 70% 29.89 in 10.0 mi West 11.5 mph - N/A   Clear
5:53 PM 41.0 °F 33.9 °F 28.9 °F 62% 29.90 in 10.0 mi WNW 12.7 mph - N/A   Clear
6:53 PM 37.9 °F 29.6 °F 28.0 °F 68% 29.90 in 10.0 mi WNW 13.8 mph - N/A   Clear
7:53 PM 36.0 °F 28.5 °F 28.0 °F 73% 29.90 in 9.0 mi WNW 10.4 mph - N/A   Clear
8:53 PM 33.1 °F 25.5 °F 27.0 °F 78% 29.91 in 10.0 mi WNW 9.2 mph - N/A   Mostly Cloudy
9:53 PM 30.9 °F 24.3 °F 26.1 °F 82% 29.91 in 9.0 mi WNW 6.9 mph - N/A   Partly Cloudy
10:53 PM 30.9 °F 23.5 °F 27.0 °F 85% 29.91 in 8.0 mi WNW 8.1 mph - N/A   Mostly Cloudy
11:53 PM 30.9 °F 25.2 °F 27.0 °F 85% 29.88 in 8.0 mi West 5.8 mph - N/A   Overcast